星链-5543 (STARLINK-5543 )
导读
STARLINK-5543是美国太空探索技术公司SpaceX星链星座的第五代卫星,于2023年4月27日发射入轨,旨在为全球提供高速低延迟卫星互联网服务。作为星链组网的组成单元,该卫星依托近地轨道优势,降低通信延迟,服务覆盖偏远地区、移动载体等场景,是美国商业航天星座部署的典型成果。
Basic Information
目录编号:
56341
目录名称:
STARLINK-5543
国际标识:
2023-058AA
轨道中心:
EARTH
卫星名称:
星链-5543
卫星全名:
星链-5543 (STARLINK-5543 )
卫星状态:
在轨 (已飞行1234 天)
发射日期:
2023-04-27 UTC
国别 :
美国
(US)
星等 :
--
This satellite is enrolled in the Space Conjunction Data Service (SCDS) and the current flight risk assessment level is: No High Risk
Orbit Information
| 数据来源 | 国际轨道数据 |
| 星历时间: | 2026-09-12T16:00:02+0800 5小时前 查看轨道信息 |
| 半长轴: | 6912.787km |
| 偏心率: | 0.0001569 |
| 轨道倾角: | 97.284° |
| 近地点辐角 | 95.664° |
| 升交点赤经 | 249.599° |
| 平近点角 | 121.622° |
| 近地点: | 533.565km |
| 远地点: | 535.735km |
| 周期: | 95.332分钟 |
| 每日圈数: | 15.105082 |
Detailed Information
固有亮度:
5
最大亮度:
2.5
卫星平台:
Starlink v1.5
覆盖范围:
全球
运营商:
太空探索技术公司
运营商所在国:
美国
制造商(研发单位):
太空探索技术公司
制造商所在国:
美国
使用方式:
暂无
Satellite Introduction
星链(Starlink)计划是由太空探索技术公司(SpaceX)提出的一个巨型低轨卫星互联网星座项目,计划在2019年至2024年间在太空搭建由约1.2万颗卫星组成的“星链”网络,其中1584颗将部署在地球上空550千米处的近地轨道,并从2020年开始工作。该卫星仍在工作。
2D Orbit Map
3D Orbit Map
Orbit Altitude Analysis Chart
Orbit Inclination Analysis Chart
Orbit Comprehensive Analysis Chart
View Comprehensive ChartConjunction Data List
| Event ID | Objects | TCA | Miss Dist (km) | Collision Risk Probability | Collision Risk Index (CRI) | Action |
|---|---|---|---|---|---|---|
| CDM_260914-131105-400505-634121 |
STARLINK-5135
(54005)
STARLINK-5543
(56341) | 2026-09-14T 13:11:29+0000 |
2.399 km
极远距离 | 1.882138E-6 低风险 | 0.4 | |
| CDM_260913-150604-343805-634121 |
BREEZE-KM R/B
(43438)
STARLINK-5543
(56341) | 2026-09-13T 15:06:27+0000 |
2.871 km
极远距离 | 1.400457E-6 低风险 | 0.38 |
Miss Distance Evolution Trend with All Objects
Collision Probability Evolution Trend with All Objects

